Flag for U.S.A. Weather past 2 weeks in Menominee, Michigan, U.S.A.

Now
45 °F

Clear.


Feels Like: 45 °F
Forecast: 42 / 53 °F
Wind: No wind

Location: Menominee Weather Reporting Station

Current Time: Apr 17, 2015 at 11:15:57 PM

Latest Report: Apr 17, 2015 at 10:15 PM


Visibility: 10 mi

Pressure: 29.96 "Hg

Humidity: 71%

Dew point: 36 °F

Location of MenomineeLocation

Historic Weather in Menominee — Graph

°F

Menominee temperature yesterday

Maximum temperature yesterday: 59 °F (at 3:55 PM)
Minimum temperature yesterday: 28 °F (at 5:35 AM)
Average temperature yesterday: 44 °F

Past Weeks' High & Low Weather Summary

 TemperatureHumidityPressure
High66 °F (Apr 14, 4:35 PM)100% (Apr 9, 8:15 PM)30.40 "Hg (Apr 9, 8:15 PM)
Low19 °F (Apr 4, 1:55 AM)14% (Apr 14, 5:15 PM)29.38 "Hg (Apr 10, 12:35 AM)
Average41 °F64%30.04 "Hg
* Reported Apr 2 9:15 PM — Apr 17 9:55 PM, Menominee, Weather by CustomWeather, © 2015

Note: Actual official high and low records may vary slightly from our data, if they occured in-between our weather recording intervals... More about our weather records

Advertising

Menominee weather history for previous 24 hours

 ConditionsComfort  
Time TempWeatherWind HumidityBarometerVisibility
9:55 PM
Fri, Apr 17
45 °FClear.No wind71%29.96 "Hg10 mi
9:35 PM46 °FPassing clouds.3 mph71%29.97 "Hg10 mi
9:15 PM46 °FPassing clouds.5 mph71%29.97 "Hg10 mi
8:55 PM50 °FPassing clouds.5 mph62%29.97 "Hg10 mi
8:35 PM52 °FPassing clouds.5 mph58%29.97 "Hg10 mi
8:15 PM54 °FPassing clouds.5 mph54%29.96 "Hg10 mi
7:55 PM54 °FPassing clouds.8 mph54%29.96 "Hg10 mi
7:35 PM55 °FPassing clouds.6 mph51%29.96 "Hg10 mi
7:15 PM55 °FSunny.7 mph51%29.96 "Hg10 mi
6:55 PM57 °FSunny.9 mph48%29.96 "Hg10 mi
6:35 PM57 °FSunny.9 mph48%29.96 "Hg10 mi
6:15 PM59 °FSunny.12 mph45%29.97 "Hg10 mi
5:55 PM59 °FSunny.10 mph45%29.97 "Hg10 mi
5:35 PM61 °FSunny.13 mph42%29.98 "Hg10 mi
5:15 PM61 °FSunny.12 mph42%29.98 "Hg10 mi
4:55 PM61 °FSunny.12 mph45%29.99 "Hg10 mi
4:35 PM61 °FSunny.13 mph45%29.99 "Hg10 mi
4:15 PM61 °FSunny.14 mph45%30.00 "Hg10 mi
3:55 PM61 °FSunny.16 mph45%30.00 "Hg10 mi
3:35 PM61 °FSunny.14 mph45%30.00 "Hg10 mi
3:15 PM63 °FSunny.14 mph45%30.01 "Hg10 mi
2:55 PM61 °FSunny.13 mph45%30.01 "Hg10 mi
2:35 PM61 °FSunny.12 mph45%30.02 "Hg10 mi
2:15 PM61 °FSunny.10 mph42%30.03 "Hg10 mi
1:55 PM61 °FSunny.10 mph42%30.03 "Hg10 mi
1:35 PM59 °FSunny.10 mph45%30.05 "Hg10 mi
1:15 PM57 °FSunny.10 mph48%30.06 "Hg10 mi
12:55 PM57 °FSunny.12 mph48%30.06 "Hg10 mi
12:35 PM57 °FSunny.13 mph48%30.06 "Hg10 mi
12:15 PM55 °FSunny.10 mph51%30.07 "Hg10 mi
11:55 AM57 °FSunny.8 mph51%30.07 "Hg10 mi
11:35 AM57 °FSunny.8 mph51%30.07 "Hg10 mi
11:15 AM55 °FSunny.7 mph51%30.08 "Hg10 mi
10:55 AM54 °FSunny.8 mph54%30.08 "Hg10 mi
10:35 AM54 °FSunny.9 mph54%30.08 "Hg10 mi
10:15 AM54 °FSunny.8 mph54%30.08 "Hg10 mi
9:55 AM55 °FSunny.8 mph51%30.08 "Hg10 mi
9:35 AM55 °FSunny.10 mph51%30.08 "Hg10 mi
9:15 AM55 °FPassing clouds.8 mph55%30.08 "Hg10 mi
8:55 AM55 °FPassing clouds.9 mph55%30.08 "Hg10 mi
8:35 AM52 °FSunny.7 mph62%30.08 "Hg10 mi
8:15 AM48 °FSunny.No wind71%30.07 "Hg10 mi
7:55 AM45 °FSunny.No wind81%30.07 "Hg10 mi
7:35 AM43 °FSunny.3 mph81%30.07 "Hg10 mi
7:15 AM39 °FScattered clouds.No wind93%30.06 "Hg8 mi
6:55 AM39 °FOvercast.No wind87%30.06 "Hg8 mi
6:35 AM39 °FOvercast.No wind87%30.05 "Hg9 mi
6:15 AM39 °FOvercast.No wind87%30.05 "Hg8 mi
5:55 AM37 °FOvercast.No wind93%30.06 "Hg8 mi
5:35 AM37 °FOvercast.3 mph87%30.06 "Hg10 mi
5:15 AM37 °FOvercast.No wind87%30.04 "Hg7 mi
4:55 AM37 °FOvercast.No wind93%30.04 "Hg7 mi
4:35 AM37 °FPassing clouds.No wind93%30.03 "Hg7 mi
4:15 AM37 °FPassing clouds.No wind93%30.02 "Hg7 mi
3:55 AM37 °FPassing clouds.5 mph93%30.01 "Hg7 mi
3:35 AM37 °FMostly cloudy.3 mph93%30.02 "Hg7 mi
3:15 AM39 °FMostly cloudy.3 mph87%30.03 "Hg8 mi
2:55 AM37 °FMostly cloudy.3 mph87%30.03 "Hg5 mi
2:35 AM37 °FPassing clouds.No wind87%30.03 "Hg6 mi
2:15 AM37 °FPassing clouds.No wind87%30.03 "Hg5 mi
1:55 AM37 °FClear.No wind93%30.02 "Hg5 mi
1:35 AM37 °FDense fog.No wind87%30.02 "Hg1 mi
1:15 AM37 °FClear.No wind87%30.03 "Hg8 mi
12:55 AM37 °FClear.5 mph93%30.03 "Hg9 mi
12:35 AM39 °FClear.No wind87%30.03 "Hg9 mi
12:15 AM39 °FClear.3 mph87%30.03 "Hg10 mi
11:55 PM
Thu, Apr 16
39 °FClear.6 mph87%30.03 "Hg10 mi
11:35 PM39 °FClear.6 mph87%30.03 "Hg10 mi
11:15 PM43 °FClear.7 mph81%30.03 "Hg10 mi
Weather by CustomWeather, © 2015

See weather overviewHow to use our weather pages